TimeCDT,TemperatureF,Dew PointF,Humidity,Sea Level PressureIn,VisibilityMPH,Wind Direction,Wind SpeedMPH,Gust SpeedMPH,PrecipitationIn,Events,Conditions,WindDirDegrees,DateUTC
12:53 AM,63.0,48.9,60,29.70,10.0,Calm,Calm,-,N/A,,Clear,0,2013-10-01 05:53:00
1:53 AM,60.1,48.9,67,29.77,10.0,NW,9.2,24.2,N/A,,Clear,320,2013-10-01 06:53:00
2:53 AM,55.9,48.0,75,29.79,10.0,NNE,8.1,-,N/A,,Clear,20,2013-10-01 07:53:00
3:53 AM,55.9,44.1,64,29.81,10.0,North,13.8,20.7,N/A,,Clear,10,2013-10-01 08:53:00
4:53 AM,53.1,43.0,69,29.85,10.0,NNE,9.2,-,N/A,,Clear,20,2013-10-01 09:53:00
5:53 AM,50.0,43.0,77,29.88,10.0,Calm,Calm,-,N/A,,Clear,0,2013-10-01 10:53:00
6:53 AM,48.0,41.0,77,29.92,10.0,Calm,Calm,-,N/A,,Clear,0,2013-10-01 11:53:00
7:53 AM,46.9,39.0,74,29.96,10.0,Calm,Calm,-,N/A,,Clear,0,2013-10-01 12:53:00
8:53 AM,52.0,41.0,66,30.00,10.0,Calm,Calm,-,N/A,,Clear,0,2013-10-01 13:53:00
9:53 AM,60.1,37.9,44,30.00,10.0,NNE,11.5,-,N/A,,Clear,30,2013-10-01 14:53:00
10:53 AM,64.0,34.0,33,30.01,10.0,ENE,12.7,-,N/A,,Clear,70,2013-10-01 15:53:00
11:53 AM,66.9,33.1,28,29.99,10.0,ENE,12.7,-,N/A,,Clear,70,2013-10-01 16:53:00
12:53 PM,70.0,34.0,27,29.98,10.0,ENE,10.4,-,N/A,,Clear,70,2013-10-01 17:53:00
1:53 PM,71.1,34.0,26,29.95,10.0,East,11.5,-,N/A,,Clear,90,2013-10-01 18:53:00
2:53 PM,72.0,37.0,28,29.94,10.0,ESE,9.2,-,N/A,,Clear,120,2013-10-01 19:53:00
3:53 PM,72.0,39.0,30,29.93,10.0,SE,9.2,-,N/A,,Clear,130,2013-10-01 20:53:00
4:53 PM,73.0,39.9,30,29.92,10.0,ESE,11.5,-,N/A,,Clear,120,2013-10-01 21:53:00
5:53 PM,72.0,43.0,35,29.92,10.0,ESE,6.9,-,N/A,,Clear,120,2013-10-01 22:53:00
6:53 PM,64.9,45.0,48,29.93,10.0,ESE,6.9,-,N/A,,Clear,120,2013-10-01 23:53:00
7:53 PM,55.9,45.0,67,29.95,10.0,East,5.8,-,N/A,,Clear,90,2013-10-02 00:53:00
8:53 PM,52.0,43.0,71,29.96,10.0,East,6.9,-,N/A,,Clear,90,2013-10-02 01:53:00
9:53 PM,50.0,43.0,77,29.96,10.0,East,6.9,-,N/A,,Clear,100,2013-10-02 02:53:00
10:53 PM,50.0,43.0,77,29.95,10.0,East,5.8,-,N/A,,Clear,80,2013-10-02 03:53:00
11:53 PM,48.0,42.1,80,29.94,10.0,ESE,6.9,-,N/A,,Clear,110,2013-10-02 04:53:00